Time,TemperatureF,DewpointF,PressureIn,WindDirection,WindDirectionDegrees,WindSpeedMPH,WindSpeedGustMPH,Humidity,HourlyPrecipIn,Conditions,Clouds,dailyrainin,SoftwareType,DateUTC
2013-11-20 00:13:00,54.7,38.0,30.04,SE,125,6.0,11.0,54,0.00,,,0.00,weatherlink.com 1.10,2013-11-20 06:13:00,
2013-11-20 00:29:00,54.3,38.0,30.03,SE,136,9.0,12.0,55,0.00,,,0.00,weatherlink.com 1.10,2013-11-20 06:29:00,
2013-11-20 00:44:00,53.8,38.0,30.03,ESE,122,4.0,9.0,56,0.00,,,0.00,weatherlink.com 1.10,2013-11-20 06:44:00,
2013-11-20 00:59:00,53.5,38.0,30.03,SE,128,3.0,9.0,57,0.00,,,0.00,weatherlink.com 1.10,2013-11-20 06:59:00,
2013-11-20 01:14:00,53.3,39.0,30.03,SE,139,5.0,10.0,58,0.00,,,0.00,weatherlink.com 1.10,2013-11-20 07:14:00,
2013-11-20 01:29:00,53.0,38.0,30.03,SSE,151,5.0,9.0,58,0.00,,,0.00,weatherlink.com 1.10,2013-11-20 07:29:00,
2013-11-20 01:44:00,52.8,39.0,30.03,ESE,117,7.0,8.0,59,0.00,,,0.00,weatherlink.com 1.10,2013-11-20 07:44:00,
2013-11-20 01:59:00,52.5,39.0,30.02,SSE,150,3.0,-999.0,60,-99.99,,,0.00,weatherlink.com 1.10,2013-11-20 07:59:00,
2013-11-20 02:14:00,52.7,39.0,30.03,SSE,152,7.0,10.0,59,0.00,,,0.00,weatherlink.com 1.10,2013-11-20 08:14:00,
2013-11-20 02:29:00,52.9,38.0,30.03,ESE,103,5.0,9.0,58,0.00,,,0.00,weatherlink.com 1.10,2013-11-20 08:29:00,
2013-11-20 02:44:00,52.7,38.0,30.03,SE,125,4.0,7.0,58,0.00,,,0.00,weatherlink.com 1.10,2013-11-20 08:44:00,
2013-11-20 02:59:00,52.7,38.0,30.04,SE,135,5.0,8.0,57,0.00,,,0.00,weatherlink.com 1.10,2013-11-20 08:59:00,
2013-11-20 03:14:00,52.6,38.0,30.04,SE,136,3.0,11.0,57,0.00,,,0.00,weatherlink.com 1.10,2013-11-20 09:14:00,
2013-11-20 03:29:00,52.6,37.0,30.04,South,179,3.0,10.0,56,0.00,,,0.00,weatherlink.com 1.10,2013-11-20 09:29:00,
2013-11-20 03:44:00,52.5,37.0,30.04,SE,127,6.0,12.0,57,0.00,,,0.00,weatherlink.com 1.10,2013-11-20 09:44:00,
2013-11-20 03:59:00,52.1,38.0,30.03,SE,125,4.0,9.0,59,0.00,,,0.00,weatherlink.com 1.10,2013-11-20 09:59:00,
2013-11-20 04:14:00,51.8,38.0,30.03,SSE,155,3.0,9.0,59,0.00,,,0.00,weatherlink.com 1.10,2013-11-20 10:14:00,
2013-11-20 04:29:00,51.5,38.0,30.03,SSE,159,4.0,10.0,60,0.00,,,0.00,weatherlink.com 1.10,2013-11-20 10:29:00,
2013-11-20 04:44:00,51.5,38.0,30.03,SE,143,5.0,13.0,60,0.00,,,0.00,weatherlink.com 1.10,2013-11-20 10:44:00,
2013-11-20 04:59:00,51.1,38.0,30.03,SSE,147,2.0,9.0,61,0.00,,,0.00,weatherlink.com 1.10,2013-11-20 10:59:00,
2013-11-20 05:14:00,50.8,38.0,30.03,SSE,165,3.0,10.0,62,0.00,,,0.00,weatherlink.com 1.10,2013-11-20 11:14:00,
2013-11-20 05:29:00,50.6,38.0,30.03,SSW,207,6.0,8.0,63,0.00,,,0.00,weatherlink.com 1.10,2013-11-20 11:29:00,
2013-11-20 05:44:00,50.2,38.0,30.03,South,174,3.0,8.0,64,0.00,,,0.00,weatherlink.com 1.10,2013-11-20 11:44:00,
2013-11-20 05:59:00,50.0,38.0,30.02,SE,136,7.0,10.0,64,0.00,,,0.00,weatherlink.com 1.10,2013-11-20 11:59:00,
2013-11-20 06:14:00,50.0,38.0,30.02,SSE,167,6.0,11.0,63,0.00,,,0.00,weatherlink.com 1.10,2013-11-20 12:14:00,
2013-11-20 06:29:00,50.1,38.0,30.02,South,181,5.0,10.0,64,0.00,,,0.00,weatherlink.com 1.10,2013-11-20 12:29:00,
2013-11-20 06:44:00,49.8,38.0,30.02,SE,143,2.0,8.0,64,0.00,,,0.00,weatherlink.com 1.10,2013-11-20 12:44:00,
2013-11-20 06:59:00,50.4,38.0,30.01,SSE,159,6.0,10.0,63,0.00,,,0.00,weatherlink.com 1.10,2013-11-20 12:59:00,
2013-11-20 07:14:00,51.0,38.0,30.02,SSW,193,3.0,12.0,61,0.00,,,0.00,weatherlink.com 1.10,2013-11-20 13:14:00,
2013-11-20 07:29:00,51.3,38.0,30.02,South,172,5.0,10.0,60,0.00,,,0.00,weatherlink.com 1.10,2013-11-20 13:29:00,
2013-11-20 07:44:00,51.5,37.0,30.03,SSE,166,9.0,9.0,59,0.00,,,0.00,weatherlink.com 1.10,2013-11-20 13:44:00,
2013-11-20 07:59:00,51.9,37.0,30.03,SSE,160,4.0,11.0,58,0.00,,,0.00,weatherlink.com 1.10,2013-11-20 13:59:00,
2013-11-20 08:14:00,52.3,36.0,30.04,SSE,155,5.0,10.0,55,0.00,,,0.00,weatherlink.com 1.10,2013-11-20 14:14:00,
2013-11-20 08:29:00,52.8,35.0,30.04,SE,139,6.0,12.0,52,0.00,,,0.00,weatherlink.com 1.10,2013-11-20 14:29:00,
2013-11-20 08:44:00,53.1,35.0,30.04,ESE,102,5.0,11.0,50,0.00,,,0.00,weatherlink.com 1.10,2013-11-20 14:44:00,
2013-11-20 08:59:00,53.4,35.0,30.04,SSE,159,7.0,10.0,51,0.00,,,0.00,weatherlink.com 1.10,2013-11-20 14:59:00,
2013-11-20 09:14:00,53.5,36.0,30.04,SSE,162,2.0,7.0,51,0.00,,,0.00,weatherlink.com 1.10,2013-11-20 15:14:00,
2013-11-20 09:29:00,54.1,36.0,30.03,SSE,168,3.0,11.0,50,0.00,,,0.00,weatherlink.com 1.10,2013-11-20 15:29:00,
2013-11-20 09:44:00,54.5,36.0,30.04,SE,134,3.0,10.0,50,0.00,,,0.00,weatherlink.com 1.10,2013-11-20 15:44:00,
2013-11-20 09:59:00,55.4,37.0,30.02,SE,144,6.0,12.0,50,0.00,,,0.00,weatherlink.com 1.10,2013-11-20 15:59:00,
2013-11-20 10:15:00,56.4,37.0,30.03,SE,129,5.0,12.0,49,0.00,,,0.00,weatherlink.com 1.10,2013-11-20 16:15:00,
2013-11-20 10:30:00,57.1,39.0,30.03,SE,146,7.0,13.0,51,0.00,,,0.00,weatherlink.com 1.10,2013-11-20 16:30:00,
2013-11-20 10:45:00,57.1,39.0,30.03,South,190,8.0,13.0,51,0.00,,,0.00,weatherlink.com 1.10,2013-11-20 16:45:00,
2013-11-20 11:00:00,57.8,41.0,30.02,SE,141,3.0,13.0,53,0.00,,,0.00,weatherlink.com 1.10,2013-11-20 17:00:00,
2013-11-20 11:15:00,58.9,42.0,30.02,SW,226,8.0,14.0,53,0.00,,,0.00,weatherlink.com 1.10,2013-11-20 17:15:00,
2013-11-20 11:30:00,59.1,42.0,30.01,SE,131,8.0,13.0,54,0.00,,,0.00,weatherlink.com 1.10,2013-11-20 17:30:00,
2013-11-20 11:45:00,59.5,43.0,30.00,SSW,201,4.0,11.0,55,0.00,,,0.00,weatherlink.com 1.10,2013-11-20 17:45:00,
2013-11-20 12:00:00,60.4,44.0,29.99,SW,214,9.0,14.0,56,0.00,,,0.00,weatherlink.com 1.10,2013-11-20 18:00:00,
2013-11-20 12:15:00,60.9,44.0,29.98,SSW,198,7.0,19.0,55,0.00,,,0.00,weatherlink.com 1.10,2013-11-20 18:15:00,
2013-11-20 12:30:00,61.3,45.0,29.97,SE,143,11.0,16.0,56,0.00,,,0.00,weatherlink.com 1.10,2013-11-20 18:30:00,
2013-11-20 12:45:00,61.8,45.0,29.97,South,188,6.0,14.0,55,0.00,,,0.00,weatherlink.com 1.10,2013-11-20 18:45:00,
2013-11-20 13:00:00,62.3,47.0,29.95,ESE,121,5.0,14.0,57,0.00,,,0.00,weatherlink.com 1.10,2013-11-20 19:00:00,
2013-11-20 13:15:00,62.7,47.0,29.94,SE,143,7.0,15.0,57,0.00,,,0.00,weatherlink.com 1.10,2013-11-20 19:15:00,
2013-11-20 13:30:00,63.2,48.0,29.93,SSE,157,7.0,15.0,58,0.00,,,0.00,weatherlink.com 1.10,2013-11-20 19:30:00,
2013-11-20 13:45:00,63.5,48.0,29.93,SSE,149,9.0,16.0,58,0.00,,,0.00,weatherlink.com 1.10,2013-11-20 19:45:00,
2013-11-20 14:00:00,63.8,49.0,29.92,SSE,155,10.0,15.0,59,0.00,,,0.00,weatherlink.com 1.10,2013-11-20 20:00:00,
2013-11-20 14:15:00,64.4,50.0,29.92,SE,124,5.0,15.0,59,0.00,,,0.00,weatherlink.com 1.10,2013-11-20 20:15:00,
2013-11-20 14:30:00,64.8,50.0,29.91,SSE,157,6.0,14.0,60,0.00,,,0.00,weatherlink.com 1.10,2013-11-20 20:30:00,
2013-11-20 14:45:00,65.0,51.0,29.90,SE,140,9.0,15.0,61,0.00,,,0.00,weatherlink.com 1.10,2013-11-20 20:45:00,
2013-11-20 15:00:00,65.4,52.0,29.91,SE,124,9.0,15.0,62,0.00,,,0.00,weatherlink.com 1.10,2013-11-20 21:00:00,
2013-11-20 15:15:00,65.4,52.0,29.91,SSE,150,5.0,13.0,63,0.00,,,0.00,weatherlink.com 1.10,2013-11-20 21:15:00,
2013-11-20 15:31:00,65.2,53.0,29.91,SSE,153,6.0,13.0,64,0.00,,,0.00,weatherlink.com 1.10,2013-11-20 21:31:00,
2013-11-20 15:46:00,65.5,53.0,29.92,SE,140,4.0,9.0,64,0.00,,,0.00,weatherlink.com 1.10,2013-11-20 21:46:00,
2013-11-20 16:01:00,65.8,54.0,29.92,SSE,148,6.0,12.0,65,0.00,,,0.00,weatherlink.com 1.10,2013-11-20 22:01:00,
2013-11-20 16:16:00,65.4,53.0,29.92,South,170,9.0,16.0,65,0.00,,,0.00,weatherlink.com 1.10,2013-11-20 22:16:00,
2013-11-20 16:31:00,65.0,53.0,29.93,East,98,8.0,13.0,65,0.00,,,0.00,weatherlink.com 1.10,2013-11-20 22:31:00,
2013-11-20 16:46:00,64.3,52.0,29.93,SE,131,6.0,14.0,64,0.00,,,0.00,weatherlink.com 1.10,2013-11-20 22:46:00,
2013-11-20 17:01:00,64.0,51.0,29.93,SSW,201,7.0,12.0,64,0.00,,,0.00,weatherlink.com 1.10,2013-11-20 23:01:00,
2013-11-20 17:16:00,63.5,51.0,29.93,SE,131,5.0,14.0,65,0.00,,,0.00,weatherlink.com 1.10,2013-11-20 23:16:00,
2013-11-20 17:31:00,63.0,51.0,29.94,SE,129,7.0,10.0,66,0.00,,,0.00,weatherlink.com 1.10,2013-11-20 23:31:00,
2013-11-20 17:46:00,62.5,51.0,29.94,SSE,153,4.0,10.0,67,0.00,,,0.00,weatherlink.com 1.10,2013-11-20 23:46:00,
2013-11-20 18:01:00,62.6,51.0,29.95,SSE,162,6.0,11.0,67,0.00,,,0.00,weatherlink.com 1.10,2013-11-21 00:01:00,
2013-11-20 18:31:00,62.8,52.0,29.95,SE,138,6.0,13.0,67,0.00,,,0.00,weatherlink.com 1.10,2013-11-21 00:31:00,
2013-11-20 18:46:00,62.7,52.0,29.95,SSE,152,5.0,12.0,67,0.00,,,0.00,weatherlink.com 1.10,2013-11-21 00:46:00,
2013-11-20 19:01:00,62.5,51.0,29.95,SE,132,3.0,9.0,67,0.00,,,0.00,weatherlink.com 1.10,2013-11-21 01:01:00,
2013-11-20 19:16:00,62.5,51.0,29.96,SE,142,6.0,9.0,67,0.00,,,0.00,weatherlink.com 1.10,2013-11-21 01:16:00,
2013-11-20 19:31:00,62.1,51.0,29.96,SE,139,5.0,10.0,67,0.00,,,0.00,weatherlink.com 1.10,2013-11-21 01:31:00,
2013-11-20 19:46:00,61.6,51.0,29.96,SE,131,8.0,11.0,68,0.00,,,0.00,weatherlink.com 1.10,2013-11-21 01:46:00,
2013-11-20 20:01:00,61.6,51.0,29.97,SE,146,5.0,11.0,68,0.00,,,0.00,weatherlink.com 1.10,2013-11-21 02:01:00,
2013-11-20 20:16:00,61.6,51.0,29.97,SE,136,4.0,12.0,68,0.00,,,0.00,weatherlink.com 1.10,2013-11-21 02:16:00,
2013-11-20 20:31:00,61.6,51.0,29.98,ESE,114,3.0,8.0,69,0.00,,,0.00,weatherlink.com 1.10,2013-11-21 02:31:00,
2013-11-20 20:46:00,61.8,51.0,29.97,SSE,160,9.0,9.0,69,0.00,,,0.00,weatherlink.com 1.10,2013-11-21 02:46:00,
2013-11-20 21:01:00,62.0,52.0,29.98,SSW,210,6.0,10.0,69,0.00,,,0.00,weatherlink.com 1.10,2013-11-21 03:01:00,
2013-11-20 21:16:00,62.3,52.0,29.98,SE,128,7.0,9.0,69,0.00,,,0.00,weatherlink.com 1.10,2013-11-21 03:16:00,
2013-11-20 21:31:00,62.3,52.0,29.98,ESE,123,7.0,11.0,70,0.00,,,0.00,weatherlink.com 1.10,2013-11-21 03:31:00,
2013-11-20 21:46:00,62.3,53.0,29.98,South,177,3.0,11.0,71,0.00,,,0.00,weatherlink.com 1.10,2013-11-21 03:46:00,
2013-11-20 22:01:00,62.4,53.0,29.98,SSE,153,4.0,8.0,71,0.00,,,0.00,weatherlink.com 1.10,2013-11-21 04:01:00,
2013-11-20 22:16:00,62.6,53.0,29.98,South,181,2.0,8.0,72,0.00,,,0.00,weatherlink.com 1.10,2013-11-21 04:16:00,
2013-11-20 22:31:00,62.6,53.0,29.98,SSE,150,4.0,7.0,72,0.00,,,0.00,weatherlink.com 1.10,2013-11-21 04:31:00,
2013-11-20 22:46:00,62.7,54.0,29.98,SE,136,4.0,8.0,74,0.00,,,0.00,weatherlink.com 1.10,2013-11-21 04:46:00,
2013-11-20 23:01:00,62.6,55.0,29.98,ESE,118,9.0,9.0,75,0.00,,,0.00,weatherlink.com 1.10,2013-11-21 05:01:00,
2013-11-20 23:16:00,62.7,55.0,29.98,ESE,118,9.0,11.0,76,0.00,,,0.00,weatherlink.com 1.10,2013-11-21 05:16:00,
2013-11-20 23:31:00,62.5,56.0,29.98,SSE,159,5.0,10.0,78,0.00,,,0.00,weatherlink.com 1.10,2013-11-21 05:31:00,
2013-11-20 23:46:00,62.2,56.0,29.98,South,176,2.0,6.0,79,0.00,,,0.00,weatherlink.com 1.10,2013-11-21 05:46:00,